Regional Weather Roundup
Issued by NWS

Home | Current Version | Previous Version | Graphics & Text | Print | Product List | Glossary On
Versions: 1 2 3 4 5 6 7 8 9 10 11 12 13 14 15 16 17 18 19 20 21 22 23 24 25 26 27 28 29 30 31 32 33 34 35 36 37 38 39 40 41 42 43 44 45 46 47 48 49 50
000
ASUS45 KSLC 280310
RWRUT

UTAH REGIONAL WEATHER ROUNDUP
NATIONAL WEATHER SERVICE SALT LAKE CITY UT
900 PM MDT WED MAY 27 2015

UTZ001>011-023>025-280400-

NORTHERN UTAH

CITY           SKY/WX    TMP DP  RH WIND       PRES   REMARKS
BRIGHAM CITY   CLOUDY    59  43  54 CALM      30.08S
HILL AFB       LGT RAIN  50  48  93 VRB7      30.10R
LOGAN          LGT RAIN  56  47  71 NE10      30.08R
OGDEN          RAIN      52  49  89 N13       30.08R FOG
PROVO AIRPORT  CLOUDY    61  45  55 S16       30.08S
SALT LAKE CITY CLOUDY    56  50  80 N16       30.08R
VERNAL         CLOUDY    53  48  83 S5        30.12R
WENDOVER       MOCLDY    59  48  67 S5        30.05F
HEBER CITY     CLOUDY    59  39  47 SW14      30.09S THUNDER
WEST JORDAN    MOCLDY    54  50  87 NW12      30.10R

$$

UTZ012>022-026-027-280400-

SOUTHERN/CENTRAL UTAH

CITY           SKY/WX    TMP DP  RH WIND       PRES   REMARKS
BLANDING       PTCLDY    64  40  42 NW6       30.14R
BRYCE CANYON   MOCLDY    52  38  58 N13       30.20R
CEDAR CITY     MOCLDY    55  44  66 NE18G25   30.15R
DELTA          CLOUDY    54  47  78 SE5       30.14S
HANKSVILLE     CLOUDY    64  43  45 N6G18     30.07R
MILFORD        LGT RAIN  52  48  86 NE25G33   30.10F
MOAB/CYNLANDS  CLEAR     64  42  44 NW32G44   30.03R
PRICE          CLOUDY    51  46  83 VRB3      30.16R
ST GEORGE      CLOUDY    82  27  13 W9        29.91R
KANAB          CLEAR     70  28  21 W6        30.05R

$$

REGIONAL REPORTS     COLORADO/ARIZONA

CITY           SKY/WX    TMP DP  RH WIND       PRES   REMARKS
CRAIG, CO      CLOUDY    55  41  59 W13G24    30.16R
GRAND JUNCTION MOCLDY    60  43  53 N15       30.06S
RIFLE          CLOUDY    57  43  59 NW18G25   30.12R
MONTROSE       PTCLDY    60  42  51 SE8       30.12R
CORTEZ         CLEAR     59  43  55 CALM      30.08S
PAGE, AZ       PTCLDY    79  35  20 N3        29.96R
GRAND CANYON   MOCLDY    61  33  35 SW5       30.14R
KINGMAN        CLEAR     76  17  11 SW10      29.96R
FLAGSTAFF      PTCLDY    54  30  40 CALM      30.19R

$$

REGIONAL REPORTS    NEVADA/IDAHO/WYOMING

CITY           SKY/WX    TMP DP  RH WIND       PRES   REMARKS
LAS VEGAS, NV  PTCLDY    89  28  11 S13       29.79R
ELY            LGT RAIN  52  46  80 S22       30.12F
ELKO           PTCLDY    65  44  46 E3        30.02R
POCATELLO, ID  MOCLDY    56  49  77 CALM      30.05R
BURLEY         LGT RAIN  53  47  79 S5        30.04R
EVANSTON, WY   MOCLDY    51  39  63 W7        30.14S
ROCK SPRINGS   CLOUDY    50  45  83 SE9       30.13R
KEMMERER       CLOUDY    46  37  71 N7        30.15S

$$



USA.gov is the U.S. government's official web portal to all federal, state and local government web resources and services.